AirNav   Air Wisconsin pilot careers
 
 305 users online  

38I Weller Airport
Urbana, Ohio, USA

GOING TO URBANA?


FAA INFORMATION EFFECTIVE 08 NOVEMBER 2018

Location

FAA Identifier: 38I
Lat/Long: 40-05-28.2100N / 083-41-21.7400W
40-05.470167N / 083-41.362333W
40.0911694 / -83.6893722
(estimated)
Elevation: 1150 ft. / 351 m (estimated)
Variation: 04W (1985)
From city: 3 miles SE of URBANA, OH
Time zone: UTC -5 (UTC -4 during Daylight Saving Time)
Zip code: 43078

Airport Operations

Airport use: Open to the public
Activation date: 11/1966
Control tower: no
ARTCC: INDIANAPOLIS CENTER
FSS: DAYTON FLIGHT SERVICE STATION
NOTAMs facility: DAY (NOTAM-D service available)
Attendance: IREG
Wind indicator: yes
Segmented circle: no

Airport Communications

CTAF/UNICOM: 123.0
WX AWOS-3 at I74 (4 nm NW): 118.325 (937-484-5863)
WX AWOS-3PT at UYF (14 nm SE): 120.85 (740-852-2844)
WX AWOS-3PT at SGH (17 nm SW): 134.975
WX AWOS-3 at MRT (17 nm NE): 119.275 (937-644-2967)
WX AWOS-3 at EDJ (18 nm N): 118.075 (937-599-4654)

Nearby radio navigation aids

VOR radial/distance  VOR name  Freq  Var
SGHr029/16.9SPRINGFIELD VOR/DME113.2004W
RODr131/20.1ROSEWOOD VORTAC117.5005W
DQNr083/32.8DAYTON VOR/DME114.5001W

 
NDB name  Hdg/Dist  Freq  Var  ID
CLARK COUNTY022/13.734104WCCJ -.-. -.-. .---
COURT HOUSE341/32.541406WCSS -.-. ... ...

Airport Services

Parking: tiedowns
Airframe service: NONE
Powerplant service: NONE
Bottled oxygen: NONE
Bulk oxygen: NONE

Runway Information

Runway 9/27

Dimensions: 2534 x 75 ft. / 772 x 23 m
Surface: turf, in good condition
Runway edge markings: 09/27 OUTLINED WITH YELLOW TIRES.
RUNWAY 9  RUNWAY 27
Latitude: 40-05.449167N40-05.491000N
Longitude: 083-41.645000W083-41.079333W
Elevation: 1150.0 ft.1150.0 ft.
Gradient: 0.8%0.8%
Traffic pattern: leftleft
Runway end identifier lights: nono
Obstructions: 75 ft. trees, 40 ft. left of centerline25 ft. pline, 45 ft. from runway, 125 ft. left of centerline, 1:1 slope to clear

Airport Ownership and Management from official FAA records

Ownership: Privately-owned
Owner: CHRISTOPHER COOK
4923 TROY RD
SPRINGFIELD, OH 45502
Phone 937-360-5308
ARPT PHYSICAL LOCATION JUST NORTH OF 3138 EAST ROUTE 29, URBANA OH 43078.
Manager: CHRISTOPHER COOK
4923 TROY RD
SPRINGFIELD, OH 45502
Phone 937-360-5308

Airport Operational Statistics

Aircraft operations: avg 25/month *
67% local general aviation
33% transient general aviation
* for 12-month period ending 03 September 2016

Instrument Procedures

There are no published instrument procedures at 38I.

Some nearby airports with instrument procedures:

I74 - Grimes Field Airport (4 nm NW)
KUYF - Madison County Airport (14 nm SE)
KSGH - Springfield-Beckley Municipal Airport (17 nm SW)
KMRT - Union County Airport (17 nm NE)
KEDJ - Bellefontaine Regional Airport (18 nm N)
 
Loc | Ops | Rwys | IFR | FBO | Links
Com | Nav | Svcs | Stats | Notes


 
Area around 38I (Weller Airport)
 
Road maps at: MapQuest Bing Google
 
Aerial photo
WARNING: Photo may not be current or correct
Aerial photo of 38I (Weller Airport)
Photo taken 12-Oct-2014
looking north.

Do you have a better or more recent aerial photo of Weller Airport that you would like to share? If so, please send us your photo.

 
Sectional chart

 
Airport distance calculator
Flying to Weller Airport? Find the distance to fly.

From to 38I

Sunrise and sunset
Times for 17-Nov-2018
 Local
(UTC-5)
 Zulu
(UTC)
Morning civil twilight06:5411:54
Sunrise07:2312:23
Sunset17:1622:16
Evening civil twilight17:4522:45

Current date and time
Zulu (UTC)  17-Nov-2018 10:13:23
Local (UTC-5)  17-Nov-2018 05:13:23
 
METAR
KUYF 
14nm SE 
170955Z AUTO 21004KT OVC019 01/00 A3021 RMK AO2 PWINO
KMRT 
17nm NE 
170955Z AUTO 23003KT 10SM OVC022 02/00 A3021 RMK AO2 T00180003
KSGH 
17nm S 
170956Z AUTO 23004KT 7SM OVC019 02/01 A3022 RMK AO2 SLP244 T00170011 FZRANO $
KEDJ 
18nm N 
170955Z AUTO 26004KT 10SM 01/00 A3021 RMK AO1
KFFO 
23nm SW 
170956Z 24005KT 10SM OVC018 03/00 A3022 RMK AO2A SLP243 T00271002
KDAY 
27nm SW 
170956Z 23003KT 8SM OVC017 03/00 A3022 RMK AO2 SLP243 T00280000
KOSU 
28nm E 
170953Z AUTO 27003KT 7SM OVC022 02/01 A3021 RMK AO2 SLP238 T00220006
TAF
KFFO 
23nm SW 
170300Z 1703/1809 VRB06KT 9999 OVC015 QNH3012INS BECMG 1710/1711 VRB06KT 9999 BKN008 OVC015 QNH3023INS BECMG 1715/1716 VRB06KT 9999 OVC015 QNH3023INS BECMG 1800/1801 VRB06KT 9999 OVC010 QNH3025INS TX03/1718Z TN02/1712Z
KDAY 
27nm SW 
170526Z 1706/1806 24005KT P6SM OVC015 TEMPO 1709/1713 5SM BR OVC009 FM172100 23003KT P6SM BKN040 FM180300 04004KT P6SM OVC025
NOTAMs
Click for the latest NOTAMs
NOTAMs are issued by the DoD/FAA and will open in a separate window not controlled by AirNav.

 

 
 

Would you like to see your business listed on this page?

 If your business provides an interesting product or service to pilots, flight crews, aircraft, or users of the Weller Airport, you should consider listing it here.  To start the listing process, click on the button below
 
Add a business
 

Other Pages about Weller Airport

Update a link
 
Copyright © AirNav, LLC. All rights reserved. Privacy Policy  Contact